CSS (TIANHE-1), 48274

Orbit data source: Space-Track

The Chinese Space Station (CSS), known as Tiangong or "Heavenly Palace," is China's independently developed space station that represents a significant step in China’s space exploration capabilities. Launched in phases starting with the Tianhe module in 2021, the station operates in low Earth orbit (LEO). It aims to support a variety of scientific experiments in fields such as space medicine, astronomy, and technology development.

Loading next visibility...
Identifier
48274, 2021-035A
Orbit
LEO
Country
Flag of CNCN / PRC
Related business
Manufacturer
CAST
Mission
Operational Civil Spaceship
Bus & Motor
TIANHE, Unknown motor
Mass
22,500 kg wet, ~20,838 kg dry
Launch date (UTC)
2021-04-29 (4 years ago)
Launch vehicle
CHANG ZHENG 5B
Launch site
Wenchang Satellite Launch Center (WSC)
Object type
Payload
Rocket body
Debris
Shape & HBR
Step Cyl + 2 Pan, 15.0 m
Radar Cross Section
85.800 m², Large (>1 m²)

Expand to show TLE details & history
Last TLE update: 18 hours ago

TLE from 18 hours ago
0 CSS (TIANHE-1)
1 48274U 21035A   25260.16547873  .00024183  00000-0  29787-3 0  9996
2 48274  41.4642 183.0293 0003585 359.2937   0.7896 15.59643017250506
Epoch: 2025-09-17T03:58Z
TLE epoch observation values (Epoch: 2025-09-17T03:58:17.362Z)
Latitude
0.00001°
Longitude
127.11162°
Altitude
385.863 km
Speed
7.682 km/s
True Right ascension
12h 12m 07s
True Declination
0° 00' 00"
Sunlit
Object was in daylight at epoch
Visualization orbit readout
Latitude
Unknown
Longitude
Unknown
Altitude
Unknown
Speed
Unknown
Apparent Right ascension
Unknown
Apparent Declination
Unknown
Sunlit
N/A
Visualization observer readout
Local Sidereal Time
15:00:28
Azimuth
Unknown
Elevation
Unknown
Doppler factor
Unknown
Orbital elements
Apogee altitude
393.349 km
Perigee altitude
388.495 km
Semi-major axis
6,769.059 km
Eccentricity
0.00036
Inclination
41.4642°
RAAN
183.0293°
Arg. of periapsis
359.2937°
True anomaly
0.79017°
Mean anomaly
0.7896°
Eccentric anomaly
0.78988°
Mean motion
3.89718 °/min
Orbital period
92.37 mins
BSTAR
0.00029787
Loading maneuver chart data...
Computing Atmospheric mass density...
Loading historical data...
Loading historical data...
Loading historical data...
Loading historical data...
Loading historical data...
Loading historical data...
Loading historical data...
Other satellites on launch #35 in the year 2021 (2021-04-29 UTC)

Documentation

Showing up to 5 results
|